This is the latest recevied weather packets stored in our database for station/object KK4KTV-13. If no packets are shown the sender has not sent any weather packets the latest 10 day(s).
| Time | Temp. | Humidity | Pressure | Rain* | Wind** | Luminosity | Snow |
|---|---|---|---|---|---|---|---|
| 1778088445 | 11.67° C | 98% | 1011.8 hPa | 0 mm | - | 196 W/m² | - |
| 1778088141 | 11.67° C | 98% | 1012 hPa | 0 mm | - | 196 W/m² | - |
| 1778087839 | 11.67° C | 98% | 1011.9 hPa | 0 mm | - | 196 W/m² | - |
| 1778087536 | 11.67° C | 98% | 1012 hPa | 0 mm | - | 196 W/m² | - |
| 1778087233 | 11.67° C | 98% | 1012.1 hPa | 0 mm | - | 196 W/m² | - |
| 1778086930 | 11.67° C | 98% | 1012.2 hPa | 0 mm | - | 196 W/m² | - |
| 1778086628 | 11.67° C | 98% | 1012.2 hPa | 0 mm | - | 196 W/m² | - |
| 1778086324 | 11.67° C | 98% | 1011.9 hPa | 0 mm | - | 196 W/m² | - |
| 1778086022 | 11.67° C | 98% | 1011.8 hPa | 0 mm | - | 196 W/m² | - |
| 1778085719 | 11.67° C | 98% | 1011.9 hPa | 0 mm | - | 196 W/m² | - |
| 1778085415 | 11.11° C | 99% | 1012 hPa | 0 mm | - | 188 W/m² | - |
| 1778085111 | 11.11° C | 99% | 1012.2 hPa | 0 mm | - | 188 W/m² | - |
| 1778084807 | 11.11° C | 99% | 1011.8 hPa | 0 mm | - | 188 W/m² | - |
| 1778084504 | 11.11° C | 99% | 1011.7 hPa | 0 mm | - | 188 W/m² | - |
| 1778084202 | 11.11° C | 99% | 1011.8 hPa | 0 mm | - | 157 W/m² | - |
| 1778083898 | 11.11° C | 99% | 1011.8 hPa | 0 mm | - | 143 W/m² | - |
| 1778083596 | 11.11° C | 99% | 1011.6 hPa | 0 mm | - | 196 W/m² | - |
| 1778083292 | 11.11° C | 99% | 1011.8 hPa | 0 mm | - | 196 W/m² | - |
| 1778082991 | 11.11° C | 99% | 1011.5 hPa | 0 mm | - | 196 W/m² | - |
| 1778082682 | 10.56° C | 99% | 1011.8 hPa | 0 mm | - | 71 W/m² | - |
| 1778081545 | 10.56° C | 99% | 1011.7 hPa | 0 mm | - | 71 W/m² | - |
| 1778081241 | 10.56° C | 99% | 1011.5 hPa | 0 mm | - | 71 W/m² | - |
| 1778080938 | 10.56° C | 99% | 1011.5 hPa | 0 mm | - | 71 W/m² | - |
| 1778080638 | 10.56° C | 99% | 1011.7 hPa | 0 mm | - | 71 W/m² | - |
| 1778080334 | 10.56° C | 99% | 1011.5 hPa | 0 mm | - | 71 W/m² | - |
* Rain latest hour (hover to see other rain measurements)
** Current wind speed in m/s (hover to see current wind gust speed)